TimeCST,TemperatureF,Dew PointF,Humidity,Sea Level PressureIn,VisibilityMPH,Wind Direction,Wind SpeedMPH,Gust SpeedMPH,PrecipitationIn,Events,Conditions,WindDirDegrees,DateUTC
12:53 AM,15.1,8.1,74,30.41,10.0,West,12.7,-,N/A,,Clear,270,2013-01-04 06:53:00
1:53 AM,15.1,8.1,74,30.40,10.0,West,9.2,-,N/A,,Clear,270,2013-01-04 07:53:00
2:53 AM,15.1,7.0,70,30.39,10.0,West,15.0,-,N/A,,Clear,270,2013-01-04 08:53:00
3:53 AM,15.1,8.1,74,30.38,10.0,West,11.5,-,N/A,,Clear,260,2013-01-04 09:53:00
4:53 AM,16.0,9.0,74,30.38,10.0,West,11.5,-,N/A,,Clear,260,2013-01-04 10:53:00
5:53 AM,18.0,10.0,71,30.38,10.0,WSW,16.1,-,N/A,,Clear,250,2013-01-04 11:53:00
6:53 AM,18.0,10.9,74,30.39,10.0,West,15.0,-,N/A,,Clear,260,2013-01-04 12:53:00
7:53 AM,15.1,9.0,77,30.41,10.0,SW,10.4,-,N/A,,Clear,230,2013-01-04 13:53:00
8:53 AM,17.1,10.0,74,30.41,10.0,WSW,10.4,-,N/A,,Clear,240,2013-01-04 14:53:00
9:53 AM,21.0,12.9,71,30.41,10.0,WSW,12.7,-,N/A,,Clear,240,2013-01-04 15:53:00
10:53 AM,25.0,16.0,69,30.40,10.0,SW,12.7,-,N/A,,Clear,230,2013-01-04 16:53:00
11:53 AM,28.9,19.0,67,30.37,10.0,SW,13.8,-,N/A,,Partly Cloudy,230,2013-01-04 17:53:00
12:53 PM,32.0,21.9,66,30.32,10.0,WSW,15.0,-,N/A,,Overcast,240,2013-01-04 18:53:00
1:53 PM,30.9,21.9,69,30.28,10.0,WSW,11.5,-,N/A,,Scattered Clouds,250,2013-01-04 19:53:00
2:53 PM,35.1,25.0,67,30.24,10.0,SW,19.6,-,N/A,,Overcast,220,2013-01-04 20:53:00
3:53 PM,34.0,26.1,73,30.23,10.0,SSW,18.4,-,N/A,,Scattered Clouds,210,2013-01-04 21:53:00
4:53 PM,32.0,25.0,75,30.23,10.0,SSW,15.0,-,N/A,,Clear,200,2013-01-04 22:53:00
5:53 PM,28.9,24.1,82,30.22,10.0,South,10.4,-,N/A,,Clear,190,2013-01-04 23:53:00
6:53 PM,27.0,24.1,89,30.22,10.0,South,10.4,-,N/A,,Scattered Clouds,180,2013-01-05 00:53:00
7:53 PM,28.9,24.1,82,30.22,10.0,SSW,13.8,-,N/A,,Overcast,200,2013-01-05 01:53:00
8:53 PM,27.0,21.9,81,30.21,10.0,SSW,12.7,-,N/A,,Mostly Cloudy,200,2013-01-05 02:53:00
9:53 PM,24.1,19.9,84,30.18,10.0,SSW,11.5,-,N/A,,Clear,200,2013-01-05 03:53:00
10:53 PM,21.9,18.0,85,30.17,9.0,SSW,8.1,-,N/A,,Clear,200,2013-01-05 04:53:00
11:53 PM,19.9,17.1,89,30.14,8.0,SSW,8.1,-,N/A,,Scattered Clouds,200,2013-01-05 05:53:00